Weather History for Elmira, NY

Change the Weather History Date:

Saturday, September 15, 2012

  Actual Average Record
Temperature  
Mean Temperature 56 °F -  
Max Temperature 68 °F 73 °F 97 °F (1952)
Min Temperature 46 °F 49 °F 30 °F (1964)
Degree Days  
Heating Degree Days 9    
Growing Degree Days 6 (Base 50)    
Moisture  
Dew Point 48 °F    
Average Humidity 84    
Maximum Humidity 100    
Minimum Humidity 48    
Precipitation  
Precipitation 0.00 in - - ()
Sea Level Pressure  
Sea Level Pressure 30.19 in    
Wind  
Wind Speed 4 mph (WSW)    
Max Wind Speed 9 mph    
Max Gust Speed -    
Visibility 7 miles    
Events Fog    
Averages and records for this station are not official NWS values.
T = Trace of Precipitation, MM = Missing Value Source: NWS Daily Summary

Daily Weather History Graph

Daily Weather History Graph

Search for Another Location

Airport:

Trip Planner

Search our weather history database for the weather conditions in past years. The results will help you decide how hot, cold, wet, or windy it might be!

Date:

Astronomy

Sep. 15, 2012 Rise Set
Actual Time 6:48 AM EDT 7:16 PM EDT
Civil Twilight 6:19 AM EDT 7:44 PM EDT
Nautical Twilight 5:46 AM EDT 8:17 PM EDT
Astronomical Twilight 5:12 AM EDT 8:51 PM EDT
Moon 6:17 AM EDT (9/15) 6:44 PM EDT (9/15)
Length of Visible Light 13h 24m
Length of Day
12h 28m
Waning Crescent, 0% of the Moon is Illuminated
Sep 15
Waning Crescent
Sep 15
New
Sep 22
First Quarter
Sep 29
Full
Oct 8
Last Quarter

Hourly Weather History & Observations

Time (EDT) Temp. Dew Point Humidity Pressure Visibility Wind Dir Wind Speed Gust Speed Precip Events Conditions
12:53 AM 52.0 °F 50.0 °F 93% 30.19 in 10.0 mi West 3.5 mph - N/A   Clear
1:18 AM 51.8 °F 51.8 °F 100% 30.20 in 2.5 mi West 3.5 mph - 0.01 in   Partly Cloudy
1:35 AM 51.8 °F 48.2 °F 88% 30.20 in 10.0 mi West 3.5 mph - 0.01 in   Partly Cloudy
1:53 AM 50.0 °F 48.2 °F 94% 30.20 in 4.0 mi West 3.5 mph - N/A   Clear
2:09 AM 50.0 °F 48.2 °F 94% 30.20 in 1.8 mi Calm Calm - N/A   Clear
2:17 AM 50.0 °F 48.2 °F 94% 30.20 in 4.0 mi West 3.5 mph - N/A   Clear
2:53 AM 50.0 °F 48.0 °F 93% 30.19 in 10.0 mi West 4.6 mph - N/A   Clear
3:53 AM 48.0 °F 46.9 °F 96% 30.19 in 10.0 mi West 3.5 mph - N/A   Clear
4:05 AM 46.4 °F 46.4 °F 100% 30.19 in 1.8 mi Calm Calm - N/A   Clear
4:16 AM 48.2 °F 46.4 °F 93% 30.19 in 3.0 mi Calm Calm - N/A   Partly Cloudy
4:26 AM 48.2 °F 46.4 °F 93% 30.19 in 2.0 mi West 3.5 mph - N/A   Mostly Cloudy
4:28 AM 48.2 °F 46.4 °F 93% 30.19 in 1.0 mi West 4.6 mph - N/A   Mist
4:35 AM 48.2 °F 46.4 °F 93% 30.19 in 0.2 mi WSW 5.8 mph - N/A Fog Fog
4:46 AM 48.2 °F 46.4 °F 93% 30.19 in 0.5 mi WSW 5.8 mph - N/A Fog Fog
4:53 AM 48.9 °F 46.9 °F 93% 30.18 in 0.8 mi WSW 4.6 mph - N/A   Mist
5:22 AM 48.2 °F 46.4 °F 93% 30.19 in 0.2 mi WSW 5.8 mph - N/A Fog Fog
5:43 AM 48.2 °F 48.2 °F 100% 30.19 in 0.5 mi SW 6.9 mph - N/A Fog Fog
5:53 AM 48.9 °F 48.0 °F 97% 30.19 in 0.8 mi SW 5.8 mph - N/A   Mist
6:03 AM 48.2 °F 48.2 °F 100% 30.19 in 1.8 mi SW 5.8 mph - N/A   Overcast
6:07 AM 48.2 °F 48.2 °F 100% 30.19 in 3.0 mi SW 5.8 mph - N/A   Overcast
6:34 AM 48.2 °F 46.4 °F 93% 30.20 in 1.5 mi SW 4.6 mph - N/A   Mostly Cloudy
6:49 AM 48.2 °F 46.4 °F 93% 30.20 in 10.0 mi SSW 5.8 mph - N/A   Mostly Cloudy
6:50 AM 48.0 °F 46.9 °F 96% 30.20 in 10.0 mi SSW 5.8 mph - N/A   Mostly Cloudy
7:34 AM 48.2 °F 46.4 °F 93% 30.22 in 10.0 mi SW 6.9 mph - N/A   Scattered Clouds
7:53 AM 50.0 °F 48.0 °F 93% 30.23 in 10.0 mi SSW 5.8 mph - N/A   Scattered Clouds
8:53 AM 54.0 °F 48.9 °F 83% 30.23 in 10.0 mi SW 9.2 mph - N/A   Clear
9:53 AM 59.0 °F 51.1 °F 75% 30.23 in 10.0 mi SW 6.9 mph - N/A   Scattered Clouds
10:53 AM 61.0 °F 46.9 °F 60% 30.23 in 10.0 mi West 5.8 mph - N/A   Mostly Cloudy
11:53 AM 63.0 °F 46.9 °F 56% 30.22 in 10.0 mi NW 6.9 mph - N/A   Mostly Cloudy
12:53 PM 64.9 °F 46.9 °F 52% 30.21 in 10.0 mi Variable 5.8 mph - N/A   Mostly Cloudy
1:53 PM 66.0 °F 46.0 °F 48% 30.20 in 10.0 mi Variable 6.9 mph - N/A   Mostly Cloudy
2:53 PM 66.9 °F 48.0 °F 51% 30.17 in 10.0 mi NNW 6.9 mph - N/A   Mostly Cloudy
3:53 PM 66.0 °F 46.0 °F 48% 30.16 in 10.0 mi WNW 6.9 mph - N/A   Overcast
4:53 PM 64.9 °F 46.0 °F 50% 30.14 in 10.0 mi NNW 5.8 mph - N/A   Mostly Cloudy
5:53 PM 64.9 °F 48.0 °F 54% 30.14 in 10.0 mi NNE 4.6 mph - N/A   Scattered Clouds
6:53 PM 60.1 °F 48.9 °F 67% 30.14 in 10.0 mi NNE 5.8 mph - N/A   Clear
7:53 PM 57.0 °F 48.9 °F 74% 30.14 in 10.0 mi Calm Calm - N/A   Clear
8:53 PM 54.0 °F 48.9 °F 83% 30.15 in 10.0 mi WNW 4.6 mph - N/A   Overcast
9:53 PM 52.0 °F 48.9 °F 89% 30.15 in 10.0 mi Calm Calm - N/A   Clear
10:53 PM 52.0 °F 48.9 °F 89% 30.15 in 10.0 mi SW 3.5 mph - N/A   Overcast
11:53 PM 53.1 °F 50.0 °F 89% 30.15 in 10.0 mi Calm Calm - N/A   Overcast